Regional Weather Roundup
Issued by NWS

Home | Current Version | Previous Version | Graphics & Text | Print | Product List | Glossary On
Versions: 1 2 3 4 5 6 7 8 9 10 11 12 13 14 15 16 17 18 19 20 21 22 23 24 25 26 27 28 29 30 31 32 33 34 35 36 37 38 39 40 41 42 43 44 45 46 47 48 49 50
000
ASUS45 KCYS 010210
RWRWY

WYOMING REGIONAL WEATHER ROUNDUP
NATIONAL WEATHER SERVICE CHEYENNE WY
800 PM MDT TUE MAR 31 2015

NOTE:  "FAIR" INDICATES FEW OR NO CLOUDS BELOW 12,000 FEET
WITH NO SIGNIFICANT WEATHER AND/OR OBSTRUCTIONS TO VISIBILITY.

WYZ001-010300-
YELLOWSTONE NATIONAL PARK

CITY           SKY/WX    TMP DP  RH WIND       PRES   REMARKS
LK YELLOWSTONE   N/A     43  22  43 VRB3      29.84F
W YELLOWSTONE  NOT AVBL

$$
WYZ002>013-054>058-071-098>099-010300-
NORTHERN WYOMING

CITY           SKY/WX    TMP DP  RH WIND       PRES   REMARKS
JACKSON        MOCLDY    55  21  26 SW8G17    29.77F
CODY           FAIR      61  19  20 S12       29.65F
GREYBULL       FAIR      67  17  14 W10       29.59S
WORLAND        FAIR      61  26  26 S12       29.62F
SHERIDAN       FAIR      59  25  27 SW7       29.58F
BUFFALO        FAIR      63  19  18 S10       29.66F
GILLETTE       FAIR      53  25  33 S8        29.64F
HULETT         FAIR      63  21  20 SE6       29.66F
NEWCASTLE      FAIR      61  14  16 E8        29.69F

$$
WYZ014>020-022>026-101>103-010300-
CENTRAL WYOMING

CITY           SKY/WX    TMP DP  RH WIND       PRES   REMARKS
BIG PINEY      FAIR      46  13  26 W10       29.84F
PINEDALE       FAIR      54  10  17 SW12      29.84F
DUBOIS         FAIR      54  14  20 W9        29.79F
LANDER         FAIR      64  11  12 SW7       29.71S
RIVERTON       FAIR      62  19  19 W6        29.72S
CASPER         FAIR      68  13  12 W16G24    29.73S
DOUGLAS        FAIR      63  18  17 SW9       29.73F

$$
WYZ021-027>030-104>119-010300-
SOUTHERN WYOMING

CITY           SKY/WX    TMP DP  RH WIND       PRES   REMARKS
EVANSTON       FAIR      55  15  20 SW16      29.86F
KEMMERER       FAIR      54  14  20 SW13      29.87S
FORT BRIDGER   FAIR      59  12  16 SW18G25   29.88F
ROCK SPRINGS   FAIR      55  18  23 S6        29.85F
DIXON          FAIR      59  21  23 S8        29.89F
RAWLINS        FAIR      59  12  15 SW14      29.86F
SARATOGA       FAIR      54  18  24 SW9       29.90F
LARAMIE        FAIR      53  14  21 W8        29.91F
CHEYENNE       FAIR      60  12  15 W6        29.86F
TORRINGTON     FAIR      70  20  15 SE6       29.72S
PINE BLUFFS    FAIR      59  18  20 S8        29.82S

$$


USA.gov is the U.S. government's official web portal to all federal, state and local government web resources and services.